Regional Weather Roundup
Issued by NWS

Home | Current Version | Previous Version | Text Only | Print | Product List | Glossary On
Versions: 1 2 3 4 5 6 7 8 9 10 11 12 13 14 15 16 17 18 19 20 21 22 23 24 25 26 27 28 29 30 31 32 33 34 35 36 37 38 39 40 41 42 43 44 45 46 47 48 49 50
000
ASUS42 KKEY 061610
RWRKEY

FLORIDA REGIONAL WEATHER ROUNDUP FOR THE FLORIDA KEYS
NATIONAL WEATHER SERVICE KEY WEST FLORIDA
1100 AM EST SAT FEB 06 2016

...SOUTH FLORIDA AND THE KEYS...

CITY           SKY/WX    TMP DP  RH WIND       PRES   REMARKS
FORT MYERS     CLOUDY    64  55  72 NE7       30.16S
SW REGIONAL AP CLOUDY    65  54  67 NE8       30.16F
NAPLES         CLOUDY    67  57  70 NE8       30.14F
MIAMI          PTSUNNY   75  66  73 CALM      30.15S
WEST KENDALL   MOSUNNY   76  66  71 E10       30.14F
HOMESTEAD      SUNNY     77  65  67 E6        30.13F
MARATHON       PTSUNNY   72  65  78 NE14      30.11F
BOCA CHICA NAS PTSUNNY   73  65  75 NE7       30.12S
KEY WEST INTL  CLOUDY    71  66  84 N6        30.13S

...INTERNATIONAL WEATHER...

CITY           SKY/WX    TMP DP  RH WIND       PRES   REMARKS
NASSAU BAHAMAS MOSUNNY   81  59  47 NE6       30.12S
CANCUN MEXICO  CLOUDY    75  64  69 N8        30.16R
COZUMEL MEXICO CLOUDY    73  66  78 N14       30.14R

ADJACENT COASTAL WATERS...

STATION/POSITION TIME  SKY/WX   TEMP    WIND        PRES    WAVE
                                AIR SEA DIR/SP/G            HT/PER
                 (UTC)          (F)     (DEG/KT/KT) (MB)    (FT/S)
PULASKI SHOAL LI 1500                                 N/A
SAND KEY         1550            69        CALM     1020.5R
SOMBRERO KEY     NOT AVBL
LONG KEY         1500            67 70   30/ 11/ 13 1021.3R
MOLASSES REEF    1600            75 76   90/ 10/ 11 1020.3R
FOWEY ROCKS      NOT AVBL

$$



USA.gov is the U.S. government's official web portal to all federal, state and local government web resources and services.